[Iaude] MPEC S105: 2023 SX1 [a=1.90,e=0.42,i=7.0,H=22.6]

mpec at marsden.cfa.harvard.edu mpec at marsden.cfa.harvard.edu
Wed Sep 20 07:19:10 EDT 2023


M.P.E.C. 2023-S105                           Issued 2023 September 20, 11:17 UT

     The Minor Planet Electronic Circulars contain information on unusual
         minor planets, routine data on comets and natural satellites,
         and occasional editorial announcements.  They are published
    on behalf of Division F of the International Astronomical Union by the
          Minor Planet Center, Smithsonian Astrophysical Observatory,
                          Cambridge, MA 02138, U.S.A.
			  
             Prepared using the Tamkin Foundation Computer Network

                              MPC at CFA.HARVARD.EDU
            URL https://www.minorplanetcenter.net/    ISSN 1523-6714

                                    2023 SX1                                    


Observations:
     K23S01X*KC2023 09 17.23951 00 42 22.03 -44 11 11.3                VES105W94
     K23S01X KC2023 09 17.24577 00 42 23.04 -44 10 47.3          20.2 GVES105W94
     K23S01X KC2023 09 17.25198 00 42 24.01 -44 10 23.0          19.5 GVES105W94
     K23S01X KC2023 09 17.28318 00 42 28.86 -44 08 20.1          18.9 GVES105X10
     K23S01X KC2023 09 17.28884 00 42 29.72 -44 07 57.6          19.4 GVES105X10
     K23S01X KC2023 09 17.29453 00 42 30.60 -44 07 35.1          18.1 GVES105X10
     K23S01X KC2023 09 17.33139 00 42 36.52 -44 05 06.1          20.1 GVES105X10
     K23S01X KC2023 09 17.33696 00 42 37.42 -44 04 43.8          20.3 GVES105X10
     K23S01X KC2023 09 17.34251 00 42 38.35 -44 04 21.0          20.0 GVES105X10
     K23S01X KC2023 09 17.58758 00 43 30.23 -43 48 17.4          20.5 VqES105E23
     K23S01X KC2023 09 17.60668 00 43 33.25 -43 47 02.4          19.8 VqES105E23
     K23S01X KC2023 09 17.62578 00 43 36.27 -43 45 47.8          20.1 VqES105E23
     K23S01X 0B2023 09 17.84974300 44 23.555-43 30 53.49         20.1 VZES105M49
     K23S01X 0B2023 09 17.85329600 44 24.219-43 30 40.79         20.1 VZES105M49
     K23S01X 0B2023 09 17.85684800 44 24.752-43 30 27.17         19.8 VZES105M49
     K23S01X KC2023 09 18.20472 00 45 26.58 -43 07 25.0          19.4 GVES105X10
     K23S01X KC2023 09 18.21030 00 45 27.40 -43 07 02.6          18.2 GVES105X10
     K23S01X KC2023 09 18.21589 00 45 28.28 -43 06 40.4          20.0 GVES105X10
     K23S01X KC2023 09 18.48978 00 46 20.41 -42 47 43.9          19.7 RqES105E94
     K23S01X KC2023 09 18.51016 00 46 23.63 -42 46 22.4          19.9 RqES105E94
     K23S01X KC2023 09 18.53062 00 46 26.74 -42 44 58.7          19.6 RqES105E94
     K23S01X 0B2023 09 18.96822900 47 47.575-42 15 05.15         19.9 VZES105M49
     K23S01X 0B2023 09 18.97169200 47 48.026-42 14 50.93         19.9 VZES105M49
     K23S01X 0B2023 09 18.97515300 47 48.552-42 14 36.00         19.8 VZES105M49
     K23S01X KC2023 09 20.23408 00 51 32.21 -40 44 44.8          20.3 GVES105X10
     K23S01X KC2023 09 20.23976 00 51 33.03 -40 44 19.8          19.6 GVES105X10
     K23S01X KC2023 09 20.24537 00 51 33.75 -40 43 54.7          19.7 GVES105X10

Observer details:
E23 Arcadia.  Observer A. Hidas.  0.35-m f/1.9 reflector + CCD.
E94 Possum Observatory, Gisborne.  Observer J. Drummond.  0.41-m f/4.5
    Newtonian + CCD.
M49 IAS Remote Observatory, Hakos.  Observers D. Husar, M. Junius.  Measurer
    D. Husar.  0.25-m f/4.5 reflector + CMO.
W94 MAP, San Pedro de Atacama.  Observers A. Maury, G. Attard.  Measurers D.
    Parrott, F. Signoret, J.-M. Mari.  0.28-m f/2.2 Schmidt astrograph + CCD.
X10 OVTLN, San Pedro de Atacama.  Observers A. Maury, G. Attard, F. Signoret.
    Measurers A. Maury, G. Attard, D. Parrott, J.-M. Mari.  0.50-m f/4
    reflector + CCD.

Orbital elements:
2023 SX1                                                 Earth MOID = 0.1177 AU
Epoch 2023 Sept. 13.0 TT = JDT 2460200.5                Veres                   
M 357.06565              (2000.0)            P               Q                  
n   0.37759389     Peri.  322.92776     +0.99577424     +0.06198872             
a   1.8957719      Node    33.70842     -0.02111566     +0.87259604             
e   0.4203073      Incl.    7.01290     -0.08937450     +0.48449308             
P   2.61           H   22.68          G   0.15           U   9                  
Residuals in seconds of arc
230917 W94  0.3-  0.7+    230917 E23  0.2-  0.1-    230918 E94  0.2-  0.0
230917 W94  0.1+  0.3+    230917 E23  0.1-  0.4+    230918 E94  0.5+  0.6-
230917 W94  0.2+  0.3+    230917 E23  0.2+  0.3-    230918 E94  0.1+  0.1-
230917 X10  0.1-  0.0     230917 M49  0.4-  0.4+    230918 M49  0.1+  0.2-
230917 X10  0.4-  0.1-    230917 M49  0.4+  0.3-    230918 M49  0.5-  0.3-
230917 X10  0.6-  0.3-    230917 M49  0.2-  0.1-    230918 M49  0.2-  0.4+
230917 X10  0.3-  0.1+    230918 X10  0.0   0.1+    230920 X10  0.1-  0.1+
230917 X10  0.3-  0.2-    230918 X10  0.2-  0.1+    230920 X10  0.3+  0.1+
230917 X10  0.1-  0.1-    230918 X10  0.2+  0.1-    230920 X10  0.3-  0.5+

Ephemeris:
2023 SX1                 a,e,i = 1.90, 0.42, 7                   q = 1.0990
Date    TT    R. A. (2000) Decl.     Delta      r    Elong.  Phase     V
2023 08 21    22 54 06.9 -57 09 48   0.1822  1.1459   134.0    39.5    20.8
...
2023 09 05    23 56 26.8 -53 47 20   0.1472  1.1116   131.6    42.7    20.4
...
2023 09 13    00 27 52.1 -48 18 51   0.1326  1.1021   133.6    41.4    20.1
...
2023 09 19    00 47 52.2 -42 12 33   0.1243  1.0991   137.1    38.5    19.9
2023 09 20    00 50 51.2 -41 01 29   0.1232  1.0990   137.8    37.8    19.9
2023 09 21    00 53 44.1 -39 47 40   0.1222  1.0990   138.6    37.1    19.8
...
2023 09 27    01 08 54.7 -31 33 33   0.1183  1.1010   144.5    31.9    19.6
...
2023 10 05    01 23 51.3 -19 09 02   0.1197  1.1093   154.2    23.1    19.4
...
2023 10 20    01 39 40.4 +02 11 41   0.1466  1.1414   172.1     6.9    19.3

M. P. C. Staff               (C) Copyright 2023 MPC           M.P.E.C. 2023-S105





More information about the Iaude mailing list